User: anonymous   Login
Location: Unspecified
(0.0000°N, 0.0000°E)
Time: 10:36:09
(UTC+00:00)
Language:

MUOS - Orbit

View from above orbital plane
View from above orbital plane
View from above satellite
View from above satellite

Ground track
Ground track

The orbit is defined by the following mean orbital elements,

1 38093U          26145.13794749 +.00000000 +00000-0 +00000-0 0 00008
2 38093   5.4299  47.1690 0059169   0.0790 145.2198  1.00271583    04
Epoch (UTC): 25 May 2026 03:18:38
Eccentricity: 0.0059169
inclination: 5.4299°
perigee height: 35537 km
apogee height: 36036 km
right ascension of ascending node: 47.1690°
argument of perigee: 0.0790°
revolutions per day: 1.00271583
mean anomaly at epoch: 145.2198°

The dashed part of the orbit path shows where the satellite is in the earth's shadow,  

DLR